Back to catalog

STARLINK-35138

AliveCommunicationsVLEO
NORAD 65420·PAYLOAD·🇺🇸 United States

Launched Aug 31, 2025 from Cape Canaveral Space Force Station

Loading…

Next Passes (next 24 hours)

TLE

FreshSource: CelesTrak SupGP

Epoch: Sep 14, 2026, 14:21 UTC

1 65420C 25192S   26257.59840278 -.00017681  00000+0 -56862-3 0  2572
2 65420  53.1586  73.3727 0001219  89.8830  83.1378 15.31708375    16

Track STARLINK-35138 in real time with AllMySat

Download on the App Store